This is the latest recevied weather packets stored in our database for station/object OE-11140. If no packets are shown the sender has not sent any weather packets the latest 10 day(s).
| Time | Temp. | Humidity | Pressure | Rain* | Wind** | Luminosity | Snow |
|---|---|---|---|---|---|---|---|
| 1787639715 | 15.56° C | 79% | 1009 hPa | 0 mm | - | 40 W/m² | - |
| 1787639116 | 14.44° C | 86% | 1009.2 hPa | 0 mm | - | 40 W/m² | - |
| 1787638288 | 14.44° C | 86% | 1009.1 hPa | 0 mm | - | 46 W/m² | - |
| 1787637916 | 14.44° C | 88% | 1009.3 hPa | 0 mm | - | 53 W/m² | - |
| 1787637316 | 13.89° C | 88% | 1009.4 hPa | 0 mm | - | 53 W/m² | - |
| 1787636488 | 13.33° C | 90% | 1009.3 hPa | 0 mm | - | 40 W/m² | - |
| 1787636115 | 13.33° C | 90% | 1009.2 hPa | 0 mm | - | 33 W/m² | - |
| 1787635515 | 13.33° C | 90% | 1009.4 hPa | 0 mm | - | 27 W/m² | - |
| 1787634689 | 13.33° C | 90% | 1009.4 hPa | 0 mm | - | 20 W/m² | - |
| 1787634316 | 12.78° C | 91% | 1009.6 hPa | 0 mm | - | 13 W/m² | - |
| 1787633716 | 12.78° C | 91% | 1009.6 hPa | 0 mm | - | 13 W/m² | - |
| 1787632889 | 12.78° C | 91% | 1009.5 hPa | 0 mm | - | 7 W/m² | - |
| 1787632516 | 12.78° C | 91% | 1009.5 hPa | 0 mm | - | 0 W/m² | - |
| 1787631916 | 12.78° C | 92% | 1009.6 hPa | 0 mm | - | 0 W/m² | - |
| 1787631089 | 12.78° C | 92% | 1009.7 hPa | 0 mm | - | 0 W/m² | - |
| 1787630716 | 12.78° C | 93% | 1009.7 hPa | 0 mm | - | 0 W/m² | - |
| 1787630116 | 12.78° C | 93% | 1009.7 hPa | 0 mm | - | 0 W/m² | - |
| 1787629516 | 12.78° C | 93% | 1010.1 hPa | 0 mm | - | 0 W/m² | - |
| 1787628916 | 12.78° C | 93% | 1010.1 hPa | 0 mm | - | 0 W/m² | - |
| 1787628315 | 12.78° C | 93% | 1010.1 hPa | 0 mm | - | 0 W/m² | - |
| 1787627488 | 12.22° C | 94% | 1010.1 hPa | 0 mm | - | 0 W/m² | - |
| 1787627115 | 12.22° C | 93% | 1010.2 hPa | 0 mm | - | 0 W/m² | - |
| 1787626516 | 12.22° C | 93% | 1010.2 hPa | 0 mm | - | 0 W/m² | - |
| 1787625688 | 12.78° C | 93% | 1010.1 hPa | 0 mm | - | 0 W/m² | - |
| 1787624715 | 12.78° C | 93% | 1010.3 hPa | 0 mm | - | 0 W/m² | - |
* Rain latest hour (hover to see other rain measurements)
** Current wind speed in m/s (hover to see current wind gust speed)